HETCH HETCHY (HTH)

Elevation: 3870' · TUOLUMNE R basin · Operator: Hetch Hetchy Water and Power

Provisional data, subject to change.
Query executed Thursday at 22:53:34   clock

Select a sensor type for a plot of data.
Note: Reservoir Flows are daily averages.

Earlier

Date RES ELE    STORAGE    RES CHG    OUTFLOW    INFLOW    PPT INC    RAIN    PPTINC4   
 FEET   AF   AF   CFS   CFS   INCHES   INCHES   INCHES  
06/29/2016 -- 361548 -- 1854 -- 0.00 38.59 0.00
06/30/2016 -- 361548 -- 1827 -- 0.00 38.59 0.00
07/01/2016 -- 360558 -- 1731 -- 0.00 38.59 0.00
07/02/2016 -- 360756 -- 1439 -- 0.00 38.59 0.00
07/03/2016 -- 360558 -- 1338 -- 0.00 38.59 0.00
07/04/2016 -- 360163 -- 1258 -- 0.00 38.59 0.00
07/05/2016 -- 359966 -- 1203 -- 0.00 38.59 0.00
07/06/2016 -- 360163 -- 806 -- 0.00 38.59 0.00
07/07/2016 -- 360756 -- 616 -- 0.00 38.59 0.00
07/08/2016 -- 361152 -- 629 -- 0.00 38.59 0.00
07/09/2016 -- 360558 -- 567 -- 0.00 38.59 0.00
07/10/2016 -- 360360 -- 658 -- 0.00 38.59 0.00
07/11/2016 -- 360163 -- 628 -- 0.00 38.59 0.00
07/12/2016 -- 359966 -- 455 -- 0.00 38.59 0.00
07/13/2016 -- 359769 -- 545 -- 0.00 38.59 0.00
07/14/2016 -- 359966 -- 500 -- 0.00 38.59 0.00
07/15/2016 -- 359572 -- 557 -- 0.00 38.59 0.00
07/16/2016 -- 358587 -- 553 -- 0.00 38.59 0.00
07/17/2016 -- 258193 -- 578 -- 0.00 38.59 0.00
07/18/2016 -- 357602 -- 593 -- 0.00 38.59 0.00
07/19/2016 -- 356814 -- 612 -- 0.00 38.59 0.00
07/20/2016 -- 356224 -- 608 -- 0.00 38.59 0.00
07/21/2016 -- 355636 -- 506 -- 0.00 38.59 0.00
07/22/2016 -- 354852 -- 581 -- 0.00 38.59 0.00
07/23/2016 -- 354068 -- 574 -- 0.00 38.59 0.00
07/24/2016 -- 353480 -- 577 -- 0.00 38.59 0.00
07/25/2016 -- 352696 -- 544 -- 0.00 38.59 0.00
07/26/2016 -- 351915 -- 574 -- 0.00 38.59 0.00
07/27/2016 -- 351135 -- 569 -- 0.00 38.59 0.00
07/28/2016 -- -- -- -- -- 0.00 -- 0.00

Later | Latest

Warning! This data is preliminary and subject to revision.

Show HTH Map | Plot HTH Data | 1 Month HTH Data | Real-Time HTH Data | HTH Info